TimePST,TemperatureF,Dew PointF,Humidity,Sea Level PressureIn,VisibilityMPH,Wind Direction,Wind SpeedMPH,Gust SpeedMPH,PrecipitationIn,Events,Conditions,WindDirDegrees,DateUTC
12:53 AM,50.0,43.0,77,30.44,10.0,SSW,5.8,-,N/A,,Overcast,210,2013-02-13 08:53:00
1:53 AM,48.9,43.0,80,30.44,10.0,SW,6.9,-,N/A,,Overcast,220,2013-02-13 09:53:00
2:53 AM,48.9,43.0,80,30.45,10.0,South,4.6,-,0.00,,Light Drizzle,180,2013-02-13 10:53:00
3:53 AM,48.9,44.1,83,30.43,10.0,South,10.4,-,0.00,,Overcast,190,2013-02-13 11:53:00
4:34 AM,48.2,42.8,82,30.42,10.0,SSW,12.7,-,N/A,,Overcast,210,2013-02-13 12:34:00
4:53 AM,48.9,43.0,80,30.42,10.0,SSW,9.2,-,N/A,,Overcast,210,2013-02-13 12:53:00
5:53 AM,48.2,42.8,82,30.44,10.0,SSW,3.5,-,N/A,,Overcast,200,2013-02-13 13:53:00
6:53 AM,48.0,43.0,83,30.43,10.0,SSW,6.9,-,N/A,,Overcast,210,2013-02-13 14:53:00
7:53 AM,48.9,44.1,83,30.45,10.0,Calm,Calm,-,N/A,,Overcast,0,2013-02-13 15:53:00
8:27 AM,48.2,42.8,82,30.45,10.0,Calm,Calm,-,N/A,,Overcast,0,2013-02-13 16:27:00
8:53 AM,48.9,44.1,83,30.46,10.0,WNW,6.9,-,N/A,,Overcast,290,2013-02-13 16:53:00
9:32 AM,46.4,46.4,100,30.47,3.0,NW,6.9,-,0.00,,Light Drizzle,310,2013-02-13 17:32:00
9:53 AM,46.9,44.1,90,30.48,2.0,NW,4.6,-,0.00,,Light Drizzle,320,2013-02-13 17:53:00
9:58 AM,46.4,44.6,93,30.48,3.0,NW,4.6,-,0.00,,Light Drizzle,320,2013-02-13 17:58:00
10:11 AM,46.4,44.6,93,30.49,2.5,WNW,6.9,-,0.01,,Light Drizzle,300,2013-02-13 18:11:00
10:53 AM,46.9,45.0,93,30.49,7.0,Calm,Calm,-,0.01,,Overcast,0,2013-02-13 18:53:00
11:53 AM,48.9,43.0,80,30.49,10.0,NNW,3.5,-,N/A,,Overcast,330,2013-02-13 19:53:00
12:28 PM,48.2,42.8,82,30.47,10.0,Calm,Calm,-,N/A,,Overcast,0,2013-02-13 20:28:00
12:53 PM,48.9,43.0,80,30.47,10.0,Calm,Calm,-,N/A,,Overcast,0,2013-02-13 20:53:00
1:01 PM,48.2,42.8,82,30.47,10.0,NW,3.5,-,N/A,,Overcast,320,2013-02-13 21:01:00
1:53 PM,51.1,43.0,74,30.46,10.0,NW,4.6,-,N/A,,Mostly Cloudy,320,2013-02-13 21:53:00
2:53 PM,53.1,42.1,66,30.45,10.0,Calm,Calm,-,N/A,,Mostly Cloudy,0,2013-02-13 22:53:00
3:53 PM,52.0,39.9,63,30.45,10.0,Calm,Calm,-,N/A,,Mostly Cloudy,0,2013-02-13 23:53:00
4:53 PM,50.0,37.9,63,30.45,10.0,Calm,Calm,-,N/A,,Mostly Cloudy,0,2013-02-14 00:53:00
5:53 PM,50.0,37.9,63,30.47,10.0,NW,3.5,-,N/A,,Mostly Cloudy,320,2013-02-14 01:53:00
6:53 PM,48.9,39.0,69,30.48,10.0,North,3.5,-,N/A,,Mostly Cloudy,350,2013-02-14 02:53:00
7:53 PM,48.0,39.0,71,30.49,10.0,West,3.5,-,N/A,,Mostly Cloudy,280,2013-02-14 03:53:00
8:53 PM,46.9,39.9,77,30.51,10.0,NW,4.6,-,N/A,,Mostly Cloudy,310,2013-02-14 04:53:00
9:53 PM,46.0,39.0,76,30.52,10.0,Calm,Calm,-,N/A,,Overcast,0,2013-02-14 05:53:00
10:53 PM,44.1,37.9,79,30.53,10.0,Calm,Calm,-,N/A,,Mostly Cloudy,0,2013-02-14 06:53:00
11:53 PM,43.0,39.0,86,30.53,10.0,Calm,Calm,-,N/A,,Mostly Cloudy,0,2013-02-14 07:53:00